Change the Weather History Date:

Saturday, May 18, 2013

  Actual Average Record
Temperature  
Mean Temperature 84 °F 81 °F  
Max Temperature 93 °F 91 °F 100 °F (1930)
Min Temperature 75 °F 71 °F 50 °F (1911)
Degree Days  
Heating Degree Days 0 0  
Month to date heating degree days 1 0  
Since 1 July heating degree days 404 622  
Cooling Degree Days 19 16  
Month to date cooling degree days 201 265  
Year to date cooling degree days 846 879  
Growing Degree Days 34 (Base 50)    
Moisture  
Dew Point 71 °F    
Average Humidity 67    
Maximum Humidity 94    
Minimum Humidity 39    
Precipitation  
Precipitation 0.00 in 0.09 in 2.70 in (1999)
Month to date precipitation 1.64 1.35  
Year to date precipitation 6.95 6.78  
Sea Level Pressure  
Sea Level Pressure 29.85 in    
Wind  
Wind Speed 17 mph (SSE)    
Max Wind Speed 28 mph    
Max Gust Speed 35 mph    
Visibility 7 miles    
Events      
T = Trace of Precipitation, MM = Missing Value Source: NWS Daily Summary

Daily Weather History Graph

Daily Weather History Graph

Search for Another Location

Airport or City:

Trip Planner

Search our weather history database for the weather conditions in past years. The results will help you decide how hot, cold, wet, or windy it might be!

Date:

Astronomy

May. 18, 2013 Rise Set
Actual Time 6:42 AM CDT 8:11 PM CDT
Civil Twilight 6:17 AM CDT 8:37 PM CDT
Nautical Twilight 5:47 AM CDT 9:07 PM CDT
Astronomical Twilight 5:15 AM CDT 9:38 PM CDT
Moon 1:54 PM CDT (5/18) 1:55 AM CDT (5/18)
Length of Visible Light 14h 19m
Length of Day
13h 29m
First Quarter, 55% of the Moon is Illuminated
May 18
First Quarter
May 24
Full
May 31
Last Quarter
Jun 8
New
Jun 16
First Quarter

Hourly Weather History & Observations

Time (CDT) Temp. Heat Index Dew Point Humidity Pressure Visibility Wind Dir Wind Speed Gust Speed Precip Events Conditions
12:14 AM 75.2 °F - 73.4 °F 94% 29.89 in 8.0 mi SE 13.8 mph - N/A   Partly Cloudy
12:52 AM 75.9 °F - 73.0 °F 91% 29.88 in 7.0 mi SE 13.8 mph - N/A   Partly Cloudy
1:52 AM 75.9 °F - 73.0 °F 91% 29.87 in 6.0 mi SSE 12.7 mph - N/A   Clear
2:22 AM 75.2 °F - 73.4 °F 94% 29.87 in 6.0 mi SSE 11.5 mph - N/A   Mostly Cloudy
2:52 AM 75.9 °F - 73.0 °F 91% 29.86 in 6.0 mi SSE 10.4 mph - N/A   Overcast
3:52 AM 75.9 °F - 73.0 °F 91% 29.86 in 5.0 mi SSE 10.4 mph - N/A   Partly Cloudy
4:49 AM 75.2 °F - 73.4 °F 94% 29.85 in 4.0 mi SSE 12.7 mph - N/A   Mostly Cloudy
4:52 AM 75.9 °F - 73.0 °F 91% 29.85 in 4.0 mi SSE 11.5 mph - N/A   Mostly Cloudy
4:59 AM 75.2 °F - 73.4 °F 94% 29.85 in 4.0 mi SSE 10.4 mph - N/A   Scattered Clouds
5:52 AM 75.9 °F - 73.0 °F 91% 29.84 in 4.0 mi SSE 13.8 mph - N/A   Clear
6:52 AM 75.0 °F - 73.0 °F 94% 29.86 in 2.5 mi SSE 10.4 mph - N/A   Mostly Cloudy
7:16 AM 75.2 °F - 73.4 °F 94% 29.86 in 2.5 mi SE 11.5 mph - N/A   Scattered Clouds
7:29 AM 75.2 °F - 73.4 °F 94% 29.86 in 3.0 mi SE 12.7 mph - N/A   Partly Cloudy
7:52 AM 75.9 °F - 73.0 °F 91% 29.86 in 5.0 mi SE 15.0 mph - N/A   Partly Cloudy
8:52 AM 79.0 °F - 73.0 °F 82% 29.88 in 8.0 mi SE 17.3 mph 24.2 mph N/A   Clear
9:52 AM 82.9 °F 88.0 °F 72.0 °F 69% 29.88 in 10.0 mi SE 19.6 mph 27.6 mph N/A   Clear
10:52 AM 87.1 °F 92.0 °F 70.0 °F 57% 29.88 in 10.0 mi SSE 21.9 mph 31.1 mph N/A   Clear
11:52 AM 88.0 °F 90.7 °F 66.9 °F 49% 29.88 in 10.0 mi South 23.0 mph 34.5 mph N/A   Clear
12:52 PM 90.0 °F 95.4 °F 70.0 °F 52% 29.88 in 10.0 mi SSE 20.7 mph 28.8 mph N/A   Clear
1:52 PM 89.1 °F 93.7 °F 69.1 °F 52% 29.86 in 10.0 mi SSE 24.2 mph 29.9 mph N/A   Clear
2:52 PM 91.9 °F 94.5 °F 66.0 °F 42% 29.84 in 10.0 mi South 23.0 mph 28.8 mph N/A   Clear
3:52 PM 93.0 °F 94.6 °F 64.0 °F 38% 29.82 in 10.0 mi South 20.7 mph 28.8 mph N/A   Clear
4:52 PM 91.0 °F 93.8 °F 66.0 °F 44% 29.81 in 10.0 mi SSE 23.0 mph 28.8 mph N/A   Clear
5:52 PM 89.1 °F 92.1 °F 66.9 °F 48% 29.82 in 10.0 mi SSE 23.0 mph 27.6 mph N/A   Clear
6:52 PM 84.9 °F 88.8 °F 69.1 °F 59% 29.81 in 10.0 mi SE 18.4 mph - N/A   Clear
7:52 PM 82.0 °F 86.7 °F 72.0 °F 71% 29.80 in 10.0 mi SE 17.3 mph 26.5 mph N/A   Clear
8:52 PM 79.0 °F - 73.0 °F 82% 29.84 in 10.0 mi SE 13.8 mph - N/A   Clear
9:52 PM 78.1 °F - 73.0 °F 84% 29.85 in 10.0 mi SE 12.7 mph - N/A   Clear
10:52 PM 77.0 °F - 73.0 °F 88% 29.86 in 9.0 mi SSE 15.0 mph - N/A   Clear
11:52 PM 77.0 °F - 73.0 °F 88% 29.86 in 9.0 mi SSE 12.7 mph - N/A   Scattered Clouds